Regional Weather Roundup
Issued by NWS

Home | Current Version | Previous Version | Text Only | Print | Product List | Glossary On
Versions: 1 2 3 4 5 6 7 8 9 10 11 12 13 14 15 16 17 18 19 20 21 22 23 24 25 26 27 28 29 30 31 32 33 34 35 36 37 38 39 40 41 42 43 44 45 46 47 48 49 50
000
ASUS45 KSLC 271210
RWRUT

UTAH REGIONAL WEATHER ROUNDUP
NATIONAL WEATHER SERVICE SALT LAKE CITY UT
600 AM MDT FRI MAR 27 2015

UTZ001>011-023>025-271300-

NORTHERN UTAH

CITY           SKY/WX    TMP DP  RH WIND       PRES   REMARKS
BRIGHAM CITY   CLEAR     35  30  84 CALM      30.34R
HILL AFB       CLEAR     42  28  56 E15       30.32S
LOGAN          CLEAR     35  31  85 CALM      30.33S
OGDEN          CLEAR     41  29  62 S10       30.31S
PROVO AIRPORT  PTCLDY    34  27  75 S7        30.35S WCI  28
SALT LAKE CITY CLEAR     40  30  67 SE7       30.32S
VERNAL         PTCLDY    36  24  62 CALM      30.30R
WENDOVER       PTCLDY    39  25  56 CALM      30.32S
HEBER CITY     CLEAR     28  23  80 CALM      30.38S
WEST JORDAN    CLEAR     43  30  61 S7        30.33S

$$

UTZ012>022-026-027-271300-

SOUTHERN/CENTRAL UTAH

CITY           SKY/WX    TMP DP  RH WIND       PRES   REMARKS
BLANDING       CLEAR     38  21  49 N8        30.38R WCI  33
BRYCE CANYON   PTCLDY    26  24  92 W6        30.40S WCI  19
CEDAR CITY     PTCLDY    32  24  72 NE6       30.32S WCI  26
DELTA          PTCLDY    37  25  61 CALM      30.33S
HANKSVILLE     CLEAR     34  19  55 CALM      30.31R
MILFORD        CLEAR     33  20  58 CALM      30.33S
MOAB/CYNLANDS  CLEAR     37  17  44 CALM      30.27R
PRICE          CLEAR     42  22  44 N8        30.30S
ST GEORGE      SUNNY     52  25  35 E5        30.25R
KANAB          CLEAR     32  23  69 E3        30.33S

$$

REGIONAL REPORTS     COLORADO/ARIZONA

CITY           SKY/WX    TMP DP  RH WIND       PRES   REMARKS
CRAIG, CO      CLEAR     28  25  88 E3        30.33F
GRAND JUNCTION CLEAR     35  21  56 SE6       30.29S WCI  30
RIFLE          CLEAR     30  22  72 S3        30.35R
MONTROSE       CLEAR     33  23  66 S9        30.35R WCI  25
CORTEZ         CLEAR     29  18  63 E8        30.33R WCI  21
PAGE, AZ       CLEAR     47  21  35 CALM      30.27R
GRAND CANYON   PTCLDY    23  16  74 CALM      30.36S
KINGMAN        CLEAR     43  25  49 E6        30.20S
FLAGSTAFF      PTCLDY    26  16  65 CALM      30.37R

$$

REGIONAL REPORTS    NEVADA/IDAHO/WYOMING

CITY           SKY/WX    TMP DP  RH WIND       PRES   REMARKS
LAS VEGAS, NV  CLEAR     60  28  29 S10       30.12S
ELY            CLEAR     30  20  66 S8        30.35F WCI  22
ELKO           CLEAR     34  26  72 CALM      30.30S
POCATELLO, ID  CLEAR     31  29  92 NW6       30.31S WCI  25
BURLEY         CLEAR     33  30  88 CALM      30.27S
EVANSTON, WY   PTCLDY    34  25  69 S8        30.36F WCI  27
ROCK SPRINGS   CLEAR     38  28  67 W15       30.31R WCI  29
KEMMERER       PTCLDY    32  28  86 W12       30.35F WCI  23

$$


USA.gov is the U.S. government's official web portal to all federal, state and local government web resources and services.